Palm Springs, CA

5:38 AM PST on January 20, 2017 (GMT -0800)
Palm Springs International

Weather History for KPSP - December, 2014

Change the Weather History Date:

Wednesday, December 10, 2014

  Actual Average Record
Temperature  
Mean Temperature 67 °F 56 °F  
Max Temperature 79 °F 67 °F 88 °F (1958)
Min Temperature 55 °F 44 °F 30 °F (1971)
Degree Days  
Heating Degree Days 0 9  
Month to date heating degree days 25 83  
Since 1 July heating degree days 58 179  
Cooling Degree Days 2 0  
Month to date cooling degree days 19 0  
Year to date cooling degree days 4943 4137  
Growing Degree Days 17 (Base 50)    
Moisture  
Dew Point 38 °F    
Average Humidity 36    
Maximum Humidity 55    
Minimum Humidity 17    
Precipitation  
Precipitation 0.00 in 0.03 in 3.80 in (1943)
Month to date precipitation 0.46 0.19  
Year to date precipitation 2.47 5.05  
Since 1 July precipitation 1.72  
Snow  
Snow 0.00 in - - ()
Month to date snowfall 0.0  
Year to date snowfall 0.0  
Snow Depth 0.00 in    
Sea Level Pressure  
Sea Level Pressure 29.99 in    
Wind  
Wind Speed 6 mph (NNW)    
Max Wind Speed 12 mph    
Max Gust Speed 12 mph    
Visibility 10 miles    
Events      
T = Trace of Precipitation, MM = Missing Value Source: NWS Daily Summary

Daily Weather History Graph

Daily Weather History Graph

Search for Another Location

Airport or City:

Trip Planner

Search our weather history database for the weather conditions in past years. The results will help you decide how hot, cold, wet, or windy it might be!

Date:

Astronomy

Dec. 10, 2014 Rise Set
Actual Time 6:40 AM PST 4:37 PM PST
Civil Twilight 6:12 AM PST 5:05 PM PST
Nautical Twilight 5:41 AM PST 5:36 PM PST
Astronomical Twilight 5:11 AM PST 6:06 PM PST
Moon 8:48 PM PST (12/10) 9:39 AM PST (12/10)
Length of Visible Light 10h 52m
Length of Day
9h 57m
Waning Gibbous, 82% of the Moon is Illuminated
Dec 10
Waning Gibbous
Dec 14
Last Quarter
Dec 21
New
Dec 28
First Quarter
Jan 4
Full

Hourly Weather History & Observations

Time (PST) Temp. Dew Point Humidity Pressure Visibility Wind Dir Wind Speed Gust Speed Precip Events Conditions
12:53 AM 57.9 °F 41.0 °F 53% 30.03 in 10.0 mi North 10.4 mph - N/A   Clear
1:53 AM 57.9 °F 39.9 °F 51% 30.03 in 10.0 mi NW 6.9 mph - N/A   Clear
2:53 AM 60.1 °F 37.0 °F 42% 30.02 in 10.0 mi WNW 3.5 mph - N/A   Clear
3:53 AM 59.0 °F 37.0 °F 44% 30.01 in 10.0 mi NW 6.9 mph - N/A   Clear
4:53 AM 57.0 °F 37.0 °F 47% 30.01 in 10.0 mi NNW 6.9 mph - N/A   Clear
5:53 AM 55.0 °F 37.9 °F 53% 30.02 in 10.0 mi North 5.8 mph - N/A   Clear
6:53 AM 57.0 °F 37.9 °F 49% 30.03 in 10.0 mi NW 6.9 mph - N/A   Clear
7:53 AM 57.9 °F 37.9 °F 47% 30.03 in 10.0 mi NNW 8.1 mph - N/A   Clear
8:53 AM 68.0 °F 36.0 °F 31% 30.04 in 10.0 mi NNW 5.8 mph - N/A   Clear
9:53 AM 75.0 °F 34.0 °F 22% 30.03 in 10.0 mi Calm Calm - N/A   Scattered Clouds
10:53 AM 77.0 °F 30.9 °F 19% 30.01 in 10.0 mi NNW 3.5 mph - N/A   Clear
11:53 AM 79.0 °F 30.9 °F 17% 29.98 in 10.0 mi East 3.5 mph - N/A   Clear
12:53 PM 79.0 °F 32.0 °F 18% 29.96 in 10.0 mi SSE 4.6 mph - N/A   Clear
1:53 PM 79.0 °F 32.0 °F 18% 29.95 in 10.0 mi South 3.5 mph - N/A   Clear
2:53 PM 78.1 °F 34.0 °F 20% 29.94 in 10.0 mi East 4.6 mph - N/A   Mostly Cloudy
3:53 PM 75.9 °F 36.0 °F 23% 29.94 in 10.0 mi East 3.5 mph - N/A   Mostly Cloudy
4:53 PM 73.0 °F 37.9 °F 28% 29.94 in 10.0 mi Calm Calm - N/A   Mostly Cloudy
5:53 PM 71.1 °F 44.1 °F 38% 29.96 in 10.0 mi NNW 4.6 mph - N/A   Clear
6:53 PM 66.9 °F 44.1 °F 44% 29.96 in 10.0 mi NNW 6.9 mph - N/A   Clear
7:53 PM 66.0 °F 43.0 °F 43% 29.96 in 10.0 mi NW 5.8 mph - N/A   Clear
8:53 PM 63.0 °F 45.0 °F 52% 29.98 in 10.0 mi Calm Calm - N/A   Clear
9:53 PM 64.0 °F 41.0 °F 43% 29.97 in 10.0 mi NNW 6.9 mph - N/A   Clear
10:53 PM 61.0 °F 42.1 °F 50% 29.97 in 10.0 mi NNW 6.9 mph - N/A   Clear
11:53 PM 60.1 °F 41.0 °F 49% 29.96 in 10.0 mi NW 5.8 mph - N/A   Clear